This is the latest recevied weather packets stored in our database for station/object SR9NLI. If no packets are shown the sender has not sent any weather packets the latest 10 day(s).
| Time | Temp. | Humidity | Pressure | Rain* | Wind** | Luminosity | Snow |
|---|---|---|---|---|---|---|---|
| 1777977525 | 23.33° C | 100% | 951.4 hPa | - | - | - | - |
| 1777977464 | 23.89° C | 100% | 951.4 hPa | - | - | - | - |
| 1777977402 | 23.89° C | 100% | 951.4 hPa | - | - | - | - |
| 1777977279 | 23.33° C | 100% | 951.3 hPa | - | - | - | - |
| 1777977156 | 22.78° C | 100% | 951.2 hPa | - | - | - | - |
| 1777977095 | 22.78° C | 100% | 951.4 hPa | - | - | - | - |
| 1777977033 | 22.78° C | 100% | 951.6 hPa | - | - | - | - |
| 1777976911 | 22.78° C | 100% | 951.4 hPa | - | - | - | - |
| 1777976788 | 22.78° C | 100% | 951.3 hPa | - | - | - | - |
| 1777976727 | 22.78° C | 100% | 951.3 hPa | - | - | - | - |
| 1777976664 | 22.78° C | 100% | 951.4 hPa | - | - | - | - |
| 1777976542 | 23.33° C | 100% | 951.3 hPa | - | - | - | - |
| 1777976419 | 22.78° C | 100% | 951.4 hPa | - | - | - | - |
| 1777976358 | 22.78° C | 100% | 951.5 hPa | - | - | - | - |
| 1777976296 | 22.78° C | 100% | 951.5 hPa | - | - | - | - |
| 1777976172 | 22.78° C | 100% | 951.3 hPa | - | - | - | - |
| 1777976049 | 22.78° C | 100% | 951.4 hPa | - | - | - | - |
| 1777975988 | 22.78° C | 100% | 951.4 hPa | - | - | - | - |
| 1777975926 | 22.22° C | 100% | 951.2 hPa | - | - | - | - |
| 1777975802 | 23.33° C | 100% | 951.4 hPa | - | - | - | - |
| 1777975679 | 22.78° C | 100% | 951.4 hPa | - | - | - | - |
| 1777975618 | 22.78° C | 100% | 951.6 hPa | - | - | - | - |
| 1777975556 | 22.78° C | 100% | 951.5 hPa | - | - | - | - |
| 1777975434 | 23.33° C | 100% | 951.4 hPa | - | - | - | - |
| 1777975311 | 23.33° C | 100% | 951.5 hPa | - | - | - | - |
* Rain since midnight (hover to see other rain measurements)
** Current wind speed in m/s (hover to see current wind gust speed)